MDT,Max TemperatureF,Mean TemperatureF,Min TemperatureF,Max Dew PointF,MeanDew PointF,Min DewpointF,Max Humidity, Mean Humidity, Min Humidity, Max Sea Level PressureIn, Mean Sea Level PressureIn, Min Sea Level PressureIn, Max VisibilityMiles, Mean VisibilityMiles, Min VisibilityMiles, Max Wind SpeedMPH, Mean Wind SpeedMPH, Max Gust SpeedMPH,PrecipitationIn, CloudCover, Events, WindDirDegrees
2012-10-1,75,54,32,41,35,32,96,56,23,30.33,30.09,29.65,10,10,10,15,7,22,0.00,0,,220
2012-10-2,73,60,46,40,36,32,71,46,26,29.95,29.75,29.61,10,10,10,17,9,26,0.00,1,,297
2012-10-3,46,44,39,38,37,33,89,82,56,30.50,30.23,29.95,10,9,4,18,11,24,0.40,8,Rain,16
2012-10-4,46,37,27,33,29,25,92,74,49,30.51,30.48,30.39,10,10,10,14,6,16,0.00,5,,356
2012-10-5,46,33,19,28,23,17,89,67,37,30.54,30.49,30.40,10,10,10,12,3,18,0.00,3,,18
2012-10-6,51,34,17,29,20,13,88,67,31,30.53,30.36,30.12,10,10,10,15,3,23,0.00,0,,246
2012-10-7,58,42,26,39,32,22,88,64,42,30.10,29.92,29.70,10,10,8,14,8,,0.00,2,,251
2012-10-8,55,47,38,41,33,24,82,57,38,30.00,29.86,29.72,10,10,7,24,14,32,0.00,3,,304
2012-10-9,51,39,27,29,24,18,89,58,28,30.16,30.11,30.02,10,10,10,17,10,25,0.00,5,,298
2012-10-10,59,43,27,36,32,25,88,66,39,30.20,29.99,29.85,10,10,10,18,7,24,T,6,,4
2012-10-11,40,36,32,31,29,26,96,78,60,30.42,30.30,30.10,10,8,1,13,5,17,0.01,8,Snow,65
2012-10-12,66,46,26,38,33,25,92,69,37,30.13,29.81,29.63,10,10,6,10,3,,0.00,0,,209
2012-10-13,63,49,35,40,36,33,93,68,40,29.96,29.84,29.68,10,10,8,9,5,,0.00,2,,233
2012-10-14,70,53,36,41,38,35,89,59,29,30.03,29.93,29.76,10,10,9,17,5,24,0.00,2,,239
2012-10-15,69,55,41,43,41,37,85,60,35,29.73,29.68,29.64,10,10,10,13,5,22,T,2,,246
2012-10-16,61,48,35,52,42,36,93,82,54,29.67,29.41,29.26,10,10,6,29,8,43,0.21,4,Rain,247
2012-10-17,55,48,41,43,29,20,93,55,28,29.90,29.64,29.35,10,10,5,45,26,59,0.01,3,Rain,298
2012-10-18,53,38,23,31,29,23,92,65,38,30.15,30.08,29.91,10,10,10,30,18,38,0.00,2,,323
2012-10-19,63,43,22,35,28,21,96,71,29,30.09,29.79,29.56,10,10,8,12,4,,0.00,0,,62
2012-10-20,69,52,35,40,33,22,89,56,24,29.75,29.56,29.49,10,10,10,22,5,31,0.00,2,,295
2012-10-21,53,41,29,31,28,24,89,65,35,30.08,29.98,29.79,10,10,10,6,2,,0.00,3,,98
2012-10-22,44,40,36,39,36,29,100,88,73,30.06,29.91,29.70,10,8,2,21,11,29,0.47,8,Rain,86
2012-10-23,43,35,26,37,32,21,100,85,51,30.00,29.78,29.64,10,7,2,22,12,29,T,5,Rain,287
2012-10-24,40,34,27,24,21,19,75,67,53,30.26,30.13,30.02,10,10,10,21,16,30,0.00,6,,278
2012-10-25,34,31,28,22,21,16,72,64,55,30.47,30.35,30.27,10,10,10,21,15,30,0.00,8,,298
2012-10-26,34,28,22,23,19,13,88,71,42,30.49,30.37,30.24,10,7,2,20,10,24,T,7,Snow,338
2012-10-27,34,29,24,25,22,21,88,78,60,30.33,30.25,30.17,10,9,2,14,7,,T,8,Snow,89
2012-10-28,38,33,27,33,27,21,93,84,74,30.24,30.04,29.91,10,6,1,16,10,,T,8,Rain-Snow,87
2012-10-29,41,34,27,38,33,27,100,94,86,30.04,29.97,29.90,5,3,0,12,6,,0.03,6,Fog-Rain,70
2012-10-30,61,46,31,44,36,30,100,89,49,30.04,29.98,29.90,10,5,0,10,4,,0.00,3,Fog,244
2012-10-31,46,38,30,38,31,27,96,83,75,30.22,30.11,29.95,10,10,9,15,7,22,0.00,6,,56